{"data":{"norad_id":68966,"intl_designator":"2026-099R","name":"STARLINK-36402","alt_names":[],"object_type":"PAYLOAD","status":"ACTIVE","operator":null,"country":"US","launch_date":"2026-05-01","launch_site_code":"AFETR","launch_vehicle":null,"mission":null,"orbit_class":"UNKNOWN","rcs_meters":null,"size_class":null,"mass_kg":null,"dimensions":null,"purposes":["comms"],"wikipedia_slug":null,"has_3d_model":false,"image_url":null,"decayed_at":null,"tle_current":{"epoch":"2026-09-20T00:45:51.490080Z","epoch_age_seconds":59886,"freshness":"FRESH","line1":"1 68966U 26099R   26263.03184595  .00015380  00000+0  46535-3 0  9997","line2":"2 68966  53.1590  77.9007 0000946  78.7183 281.3926 15.34401548 21833","mean_motion":15.34401548,"eccentricity":9.46e-5,"inclination_deg":53.159,"raan_deg":77.9007,"arg_perigee_deg":78.7183,"mean_anomaly_deg":281.3926,"bstar":0.00046535,"rev_number":2183,"period_min":93.847663401862,"perigee_km":462.05149617728,"apogee_km":463.34578228022,"semimajor_km":6840.8356392287,"source":"CELESTRAK","updated_at":"2026-09-20T09:00:44.054464Z"}}}